BEIDOU-3 IGSO-2 (C39)

Last updated on Sat Jul 05 2025 00:03:21 GMT+0000 (Coordinated Universal Time)

1 44337U 19035A 25184.80578490 -.00000066 00000+0 00000+0 0 9991 2 44337 55.2145 161.9223 0035568 210.8065 319.0704 1.00266108 22178
UTC large
Height (km)
Speed (km/s)
/
Latitude / Longitude
Inclination (degrees)
Orbital Period (minutes)
Azimuth
Elevation
Range (km)
Doppler Factor

Next 0 passes for location: London (51.5072 / 0.1276)

Sorry there are no passes over London.